CW4421 Weather Reports


time (UTC)temp
F
wind
direction
speed
knots
gust
knots
rain 1hr
in
rain 24hr
in
rain mn
in
humidity
%
barometer
mb
20260506161511 50 49 0.9 6.1 0.00 0.23 0.06 82 1019.4
20260506160012 48 51 1.7 4.3 0.00 0.23 0.06 85 1019.7
20260506154504 47 281 0.9 5.2 0.00 0.23 0.06 84 1019.7
20260506153002 47 299 0.0 1.7 0.00 0.23 0.06 87 1019.7
20260506151602 47 11 0.0 1.7 0.00 0.23 0.06 86 1019.6
20260506150058 46 25 0.0 1.7 0.00 0.23 0.06 87 1019.6
20260506144600 46 53 1.7 4.3 0.00 0.23 0.06 88 1019.6
20260506143055 46 59 0.9 3.5 0.00 0.23 0.06 89 1019.1
20260506141557 45 57 3.5 7.8 0.00 0.23 0.06 89 1019.1
20260506140100 45 47 0.9 4.3 0.00 0.23 0.06 92 1018.7
20260506134551 45 68 2.6 6.1 0.00 0.23 0.06 92 1019.1
20260506133053 45 55 0.9 6.1 0.00 0.23 0.06 92 1018.4
20260506131550 45 57 1.7 6.1 0.00 0.23 0.06 92 1018.5
20260506130053 45 25 0.0 1.7 0.00 0.23 0.06 93 1018.2
20260506124548 44 17 0.0 4.3 0.01 0.23 0.06 93 1018.1
20260506123047 44 360 0.0 0.0 0.01 0.23 0.06 93 1017.7
20260506121546 44 342 0.0 0.0 0.01 0.23 0.06 93 1017.3
20260506120054 44 333 0.0 0.0 0.01 0.23 0.06 93 1017.1
20260506114551 44 332 0.0 0.0 0.00 0.22 0.05 93 1016.8
20260506113044 44 304 0.0 1.7 0.00 0.22 0.05 92 1016.5
20260506111544 44 63 0.0 0.0 0.00 0.22 0.05 92 1016.2
20260506110043 44 51 0.0 0.0 0.00 0.22 0.05 92 1016.1
20260506104545 44 51 0.0 5.2 0.00 0.22 0.05 92 1015.6
20260506103041 44 62 0.9 2.6 0.01 0.22 0.05 92 1015.7
20260506101541 44 54 0.0 1.7 0.01 0.22 0.05 92 1016.0
20260506100041 44 16 0.0 1.7 0.01 0.22 0.05 92 1016.0
20260506094545 44 59 0.0 0.0 0.01 0.22 0.05 93 1016.0
20260506093101 44 342 0.0 0.0 0.00 0.21 0.04 92 1015.8
20260506091542 44 331 0.0 0.0 0.00 0.21 0.04 92 1015.5
20260506090040 44 331 0.0 0.0 0.00 0.21 0.04 92 1015.2
20260506084538 44 331 0.0 0.0 0.00 0.21 0.04 92 1015.7
20260506083040 44 331 0.0 0.0 0.00 0.21 0.04 91 1015.9
20260506081536 44 331 0.0 1.7 0.01 0.21 0.04 91 1016.1
20260506073033 44 294 0.9 5.2 0.00 0.20 0.03 90 1015.6
20260506071535 44 32 0.0 0.0 0.00 0.20 0.03 90 1014.9
20260506061529 44 58 0.9 2.6 0.02 0.20 0.03 89 1014.7
20260506044521 44 65 3.5 5.2 0.02 0.16 0.16 88 1013.8
20260506043020 44 52 4.3 8.7 0.05 0.16 0.16 87 1013.5
20260506041519 44 53 3.5 7.8 0.05 0.16 0.16 87 1013.8
20260506040020 44 38 3.5 7.8 0.04 0.15 0.15 87 1013.6
20260506034517 44 56 6.1 10.4 0.04 0.14 0.14 85 1013.8
20260506033014 45 29 1.7 5.2 0.04 0.11 0.11 84 1013.3
20260506031513 45 62 5.2 13.0 0.06 0.11 0.11 81 1012.9
20260506030009 46 36 3.5 7.8 0.06 0.11 0.11 82 1012.7
20260506024508 47 42 0.0 1.7 0.05 0.10 0.10 85 1012.8
20260506023007 48 42 0.0 0.0 0.02 0.07 0.07 83 1012.5
20260506021506 48 42 0.0 1.7 0.00 0.05 0.05 79 1012.5
20260506020005 48 42 0.0 0.0 0.00 0.05 0.05 76 1012.5
20260506014507 48 42 0.0 0.0 0.00 0.05 0.05 78 1012.4
20260506013005 48 42 0.0 0.0 0.00 0.05 0.05 77 1012.3
20260506011502 49 42 0.0 0.0 0.00 0.05 0.05 77 1011.8
20260506010002 49 47 0.0 1.7 0.00 0.05 0.05 75 1011.2
20260506004502 49 45 0.9 7.8 0.00 0.05 0.05 76 1010.8
20260506003101 49 66 3.5 7.8 0.00 0.05 0.05 74 1010.6
20260506001608 49 60 6.1 9.6 0.00 0.05 0.05 69 1010.6
20260506000124 51 57 5.2 13.0 0.00 0.05 0.05 61 1010.5
20260505234616 52 80 3.5 9.6 0.00 0.05 0.05 60 1010.3
20260505233058 52 45 2.6 13.0 0.00 0.05 0.05 57 1010.3
20260505231600 52 54 7.8 12.2 0.00 0.05 0.05 57 1009.9
20260505230057 53 32 7.8 13.0 0.00 0.05 0.05 55 1009.7
20260505224557 53 49 5.2 16.5 0.00 0.05 0.05 56 1009.4
20260505223104 54 49 8.7 17.4 0.00 0.05 0.05 55 1009.8
20260505221600 54 67 8.7 16.5 0.00 0.05 0.05 55 1009.7
20260505220106 54 37 5.2 13.9 0.00 0.05 0.05 53 1009.7
20260505214605 55 63 7.8 19.1 0.00 0.05 0.05 52 1009.5
20260505213054 55 49 13.0 21.7 0.00 0.05 0.05 52 1009.6
20260505211631 56 72 10.4 23.5 0.00 0.05 0.05 52 1009.6
20260505210053 56 22 10.4 17.4 0.00 0.05 0.05 52 1009.7
20260505204603 56 73 9.6 20.9 0.00 0.05 0.05 51 1009.6
20260505203055 56 63 10.4 20.0 0.00 0.05 0.05 51 1009.9
20260505201553 56 59 11.3 18.2 0.00 0.05 0.05 53 1010.0
20260505200052 56 81 11.3 20.9 0.00 0.05 0.05 54 1009.7
20260505194551 55 71 12.2 20.0 0.00 0.05 0.05 56 1009.9
20260505193051 55 75 10.4 17.4 0.00 0.05 0.05 60 1009.4
20260505191550 55 59 13.9 21.7 0.00 0.05 0.05 60 1009.6
20260505190049 53 73 8.7 13.0 0.00 0.05 0.05 64 1009.7
20260505184549 53 25 8.7 16.5 0.00 0.05 0.05 67 1009.7
20260505183048 53 68 8.7 15.6 0.00 0.05 0.05 69 1009.8
20260505181615 52 75 9.6 13.9 0.00 0.05 0.05 70 1009.9
20260505174547 51 70 10.4 17.4 0.05 0.05 0.05 76 1009.9
20260505173046 50 76 7.8 15.6 0.05 0.05 0.05 85 1009.7
20260505171551 47 76 8.7 13.0 0.05 0.05 0.05 85 1010.1
20260505170043 48 57 7.0 16.5 0.00 0.00 0.00 78 1009.8
20260505164539 49 52 9.6 16.5 0.00 0.00 0.00 73 1009.6
20260505163035 50 51 13.0 23.5 0.00 0.00 0.00 65 1009.9